This is the latest recevied weather packets stored in our database for station/object KI2K. If no packets are shown the sender has not sent any weather packets the latest 10 day(s).
| Time | Temp. | Humidity | Pressure | Rain* | Wind** | Luminosity | Snow |
|---|---|---|---|---|---|---|---|
| 1778041778 | 7.78° C | 99% | 1009.5 hPa | 1.27 mm | - | 0 W/m² | - |
| 1778041477 | 7.78° C | 99% | 1009.2 hPa | 0 mm | - | 0 W/m² | - |
| 1778041175 | 7.78° C | 99% | 1008.9 hPa | 0 mm | - | 0 W/m² | - |
| 1778040872 | 7.78° C | 99% | 1008.9 hPa | 0 mm | - | 0 W/m² | - |
| 1778040569 | 8.33° C | 99% | 1009.1 hPa | 0 mm | - | 0 W/m² | - |
| 1778040267 | 7.78° C | 99% | 1009 hPa | 1.78 mm | - | 0 W/m² | - |
| 1778039963 | 8.33° C | 99% | 1008.7 hPa | 0 mm | - | 0 W/m² | - |
| 1778039661 | 8.33° C | 99% | 1008.6 hPa | 0 mm | - | 0 W/m² | - |
| 1778039357 | 8.33° C | 99% | 1008.6 hPa | 0 mm | - | 0 W/m² | - |
| 1778039054 | 8.33° C | 99% | 1008.8 hPa | 0 mm | - | 0 W/m² | - |
| 1778038751 | 8.33° C | 99% | 1008.4 hPa | 0 mm | - | 0 W/m² | - |
| 1778038449 | 8.33° C | 99% | 1008.7 hPa | 0 mm | - | 0 W/m² | - |
| 1778038145 | 8.33° C | 99% | 1008.8 hPa | 1.27 mm | - | 0 W/m² | - |
| 1778037842 | 8.33° C | 99% | 1008.6 hPa | 4.32 mm | - | 0 W/m² | - |
| 1778037539 | 8.33° C | 99% | 1008.7 hPa | 7.87 mm | - | 0 W/m² | - |
| 1778037236 | 8.33° C | 99% | 1009.2 hPa | 8.89 mm | - | 0 W/m² | - |
| 1778036934 | 8.33° C | 99% | 1009.2 hPa | 10.67 mm | - | 0 W/m² | - |
| 1778036632 | 8.33° C | 99% | 1009.5 hPa | 7.87 mm | - | 0 W/m² | - |
| 1778036328 | 8.33° C | 99% | 1010 hPa | 1.78 mm | - | 0 W/m² | - |
| 1778036025 | 8.33° C | 99% | 1009.6 hPa | 0 mm | - | 0 W/m² | - |
| 1778035722 | 8.33° C | 99% | 1008.6 hPa | 0 mm | - | 0 W/m² | - |
| 1778035419 | 8.33° C | 99% | 1008.3 hPa | 0 mm | - | 0 W/m² | - |
| 1778035115 | 8.33° C | 99% | 1008.1 hPa | 0 mm | - | 0 W/m² | - |
| 1778034812 | 8.33° C | 99% | 1008.1 hPa | 0 mm | - | 0 W/m² | - |
| 1778034508 | 8.33° C | 99% | 1008.3 hPa | 0 mm | - | 0 W/m² | - |
* Rain latest hour (hover to see other rain measurements)
** Current wind speed in m/s (hover to see current wind gust speed)